Regional Weather Roundup
Issued by NWS

Home | Current Version | Previous Version | Text Only | Print | Product List | Glossary On
Versions: 1 2 3 4 5 6 7 8 9 10 11 12 13 14 15 16 17 18 19 20 21 22 23 24 25 26 27 28 29 30 31 32 33 34 35 36 37 38 39 40 41 42 43 44 45 46 47 48 49 50
000
ASUS43 KLMK 280110
RWRKY
KENTUCKY REGIONAL WEATHER ROUNDUP
NATIONAL WEATHER SERVICE LOUISVILLE KY
900 PM EDT MON MAR 27 2017

NOTE "FAIR" INDICATES FEW OR NO CLOUDS BELOW 12,000 FEET
WITH NO SIGNIFICANT WEATHER AND/OR OBSTRUCTIONS TO VISIBILITY.

KYZ001>023-026-027-061>063-070>075-280200-
WESTERN AND SOUTH CENTRAL KENTUCKY

CITY           SKY/WX    TMP DP  RH WIND       PRES   REMARKS
PADUCAH        CLEAR     59  55  87 S3        29.83R
HENDERSON      CLEAR     55  50  82 S7        29.81S
OWENSBORO      CLOUDY    56  54  93 S5        29.83S
HOPKINSVILLE   MOCLDY    57  57 100 SE6       29.82F
BOWLING GREEN  LGT RAIN  58  56  93 SE7       29.85F
GLASGOW        LGT RAIN N/A N/A N/A SE7       29.86F
$$

KYZ024-025-028>034-038-045-046-053-280200-
NORTH CENTRAL KENTUCKY

CITY           SKY/WX    TMP DP  RH WIND       PRES   REMARKS
LOUISVILLE/SDF CLOUDY    59  55  87 SE8       29.83R
LOUISVILLE/LOU CLOUDY    59  55  87 SE3       29.84R
FORT KNOX      CLOUDY    56  56  99 SE8       29.82R
$$

KYZ035>037-039>044-047>052-055>060-089>105-280200-
NORTHEAST KENTUCKY

CITY           SKY/WX    TMP DP  RH WIND       PRES   REMARKS
LEXINGTON      LGT RAIN  57  53  86 W7        29.90F
COVINGTON      LGT RAIN  60  56  86 S9G20     29.86R
FRANKFORT      CLOUDY    57  53  86 E7        29.84F
$$

KYZ054-064>069-076>088-106>120-280200-
SOUTHEAST KENTUCKY

CITY           SKY/WX    TMP DP  RH WIND       PRES   REMARKS
JACKSON        TSTM      60  57  89 VRB6      29.93R
LONDON         HVY RAIN  57  54  89 CALM      29.95S FOG
SOMERSET       CLOUDY    54  54 100 CALM      29.96S
MIDDLESBORO    TSTM      60  56  88 W13G30    29.97R
MONTICELLO     CLOUDY    55  54  96 SE5       29.96S
$$





USA.gov is the U.S. government's official web portal to all federal, state and local government web resources and services.